UAE434 OMDB-YBBN

Flight info

Callsign UAE434
Flight time N/A
Altitude 29000
Route ANVIX L223 TARDI N629 GIDAN P570 EMURU M300 NITIX/N0507F310 M300 VASTU P895 BIKOK M641 ADLIG/N0502F330 M641 DOGAR DCT DAOVO DCT PIBED DCT 09S094E DCT POROR DCT 19S106E 22S111E/N0490F350 DCT ATLOD DCT NOPED DCT 28S124E DCT PINAV DCT 29S130E DCT CARTS DCT GUGAB DCT AROLI DCT EGUBA DCT ENLIP
Aircraft B77W/H-SDE1E2E3FGHIJ2J3J4J5M1RWXY/LB1D1

Departure

Time N/A
Airport Dubai International Airport (OMDB)

Arrival

Time 2026-05-06 05:08
Airport Brisbane International Airport (YBBN)
Time Latitude Longitude Altitude Speed Heading
2026-05-06 04:35 -28.73055 148.81345 35075 ft 532 kts 73°
2026-05-06 04:35 -28.71762 148.88324 35084 ft 532 kts 72°
2026-05-06 04:36 -28.70262 148.96394 35068 ft 533 kts 72°
2026-05-06 04:36 -28.68724 149.04642 35084 ft 535 kts 73°
2026-05-06 04:37 -28.67179 149.12900 35079 ft 534 kts 72°
2026-05-06 04:37 -28.65636 149.21120 35069 ft 534 kts 72°
2026-05-06 04:38 -28.64069 149.29427 35079 ft 534 kts 73°
2026-05-06 04:38 -28.62506 149.37688 35069 ft 538 kts 72°
2026-05-06 04:39 -28.60932 149.45984 35061 ft 537 kts 72°
2026-05-06 04:39 -28.59351 149.54286 35067 ft 536 kts 72°
2026-05-06 04:40 -28.57759 149.62614 35067 ft 539 kts 72°
2026-05-06 04:40 -28.56167 149.70917 35051 ft 538 kts 72°
2026-05-06 04:41 -28.54563 149.79246 35046 ft 539 kts 72°
2026-05-06 04:41 -28.53082 149.86920 35062 ft 540 kts 72°
2026-05-06 04:42 -28.51479 149.95186 35057 ft 540 kts 72°
2026-05-06 04:42 -28.49866 150.03485 35055 ft 544 kts 71°
2026-05-06 04:43 -28.48232 150.11865 35066 ft 540 kts 72°
2026-05-06 04:43 -28.46598 150.20207 35065 ft 543 kts 72°
2026-05-06 04:44 -28.44956 150.28569 35064 ft 542 kts 72°
2026-05-06 04:44 -28.43303 150.36955 35066 ft 541 kts 72°
2026-05-06 04:45 -28.41653 150.45294 35073 ft 543 kts 72°
2026-05-06 04:45 -28.39990 150.53673 35073 ft 545 kts 72°
2026-05-06 04:46 -28.38285 150.62004 35078 ft 542 kts 71°
2026-05-06 04:46 -28.36501 150.70346 35056 ft 543 kts 70°
2026-05-06 04:47 -28.34720 150.78662 35046 ft 543 kts 70°
2026-05-06 04:47 -28.32984 150.86749 35058 ft 545 kts 70°
2026-05-06 04:48 -28.31228 150.94923 35064 ft 544 kts 70°
2026-05-06 04:48 -28.29432 151.03252 35068 ft 546 kts 70°
2026-05-06 04:49 -28.27624 151.11615 35072 ft 544 kts 70°
2026-05-06 04:49 -28.25810 151.19980 35076 ft 547 kts 70°
2026-05-06 04:50 -28.24001 151.28293 35080 ft 547 kts 70°
2026-05-06 04:50 -28.22167 151.36699 35085 ft 549 kts 70°
2026-05-06 04:51 -28.20334 151.45075 35094 ft 548 kts 70°
2026-05-06 04:51 -28.18511 151.53383 35096 ft 545 kts 70°
2026-05-06 04:52 -28.16662 151.61774 35082 ft 549 kts 70°
2026-05-06 04:52 -28.15757 151.65891 35092 ft 534 kts 69°
2026-05-06 04:52 -28.14871 151.69920 35059 ft 519 kts 69°
2026-05-06 04:52 -28.14071 151.73550 35012 ft 504 kts 69°
2026-05-06 04:53 -28.13229 151.77357 34786 ft 494 kts 69°
2026-05-06 04:53 -28.12455 151.80837 34240 ft 493 kts 69°
2026-05-06 04:53 -28.11635 151.84512 33514 ft 496 kts 70°
2026-05-06 04:53 -28.10788 151.88301 32802 ft 499 kts 70°
2026-05-06 04:54 -28.09943 151.92087 32275 ft 496 kts 70°
2026-05-06 04:54 -28.09102 151.95857 31804 ft 492 kts 69°
2026-05-06 04:54 -28.08275 151.99553 31300 ft 489 kts 70°
2026-05-06 04:54 -28.07447 152.03256 30721 ft 486 kts 70°
2026-05-06 04:55 -28.06611 152.06987 30117 ft 483 kts 70°
2026-05-06 04:55 -28.05787 152.10657 29456 ft 481 kts 70°
2026-05-06 04:55 -28.04967 152.14300 28740 ft 480 kts 70°
2026-05-06 04:55 -28.04146 152.17949 28008 ft 479 kts 71°
2026-05-06 04:56 -28.03338 152.21535 27477 ft 473 kts 71°
2026-05-06 04:56 -28.02515 152.25179 27406 ft 479 kts 71°
2026-05-06 04:56 -28.01685 152.28838 27403 ft 488 kts 71°
2026-05-06 04:56 -28.00860 152.32495 27390 ft 475 kts 71°
2026-05-06 04:57 -28.00055 152.36060 27004 ft 470 kts 71°
2026-05-06 04:57 -27.99237 152.39658 25975 ft 480 kts 71°
2026-05-06 04:57 -27.98396 152.43352 24596 ft 485 kts 72°
2026-05-06 04:57 -27.97565 152.47005 23319 ft 485 kts 72°
2026-05-06 04:58 -27.96731 152.50670 22096 ft 483 kts 72°
2026-05-06 04:58 -27.95904 152.54298 20939 ft 480 kts 72°
2026-05-06 04:58 -27.94940 152.57863 19762 ft 472 kts 65°
2026-05-06 04:58 -27.93596 152.61168 18616 ft 464 kts 60°
2026-05-06 04:59 -27.92150 152.64401 17579 ft 456 kts 60°
2026-05-06 04:59 -27.90729 152.67555 16611 ft 446 kts 59°
2026-05-06 04:59 -27.89337 152.70638 15696 ft 435 kts 59°
2026-05-06 04:59 -27.87992 152.73608 14819 ft 425 kts 60°
2026-05-06 05:00 -27.86653 152.76559 13955 ft 415 kts 60°
2026-05-06 05:00 -27.85637 152.78796 13254 ft 408 kts 60°
2026-05-06 05:00 -27.84356 152.81616 12367 ft 399 kts 60°
2026-05-06 05:00 -27.83266 152.83986 11581 ft 392 kts 58°
2026-05-06 05:01 -27.81985 152.86144 10843 ft 384 kts 48°
2026-05-06 05:01 -27.80159 152.88219 10394 ft 362 kts 36°
2026-05-06 05:01 -27.78150 152.89729 10247 ft 334 kts 27°
2026-05-06 05:01 -27.76189 152.90974 10156 ft 311 kts 28°
2026-05-06 05:02 -27.74359 152.92160 9983 ft 293 kts 27°
2026-05-06 05:02 -27.72599 152.93233 9592 ft 285 kts 26°
2026-05-06 05:02 -27.70846 152.94266 9060 ft 284 kts 25°
2026-05-06 05:02 -27.69093 152.95282 8513 ft 283 kts 26°
2026-05-06 05:03 -27.67366 152.96277 8000 ft 280 kts 26°
2026-05-06 05:03 -27.65615 152.97281 7492 ft 278 kts 26°
2026-05-06 05:03 -27.63908 152.98261 7023 ft 276 kts 27°
2026-05-06 05:03 -27.62201 152.99237 6461 ft 276 kts 27°
2026-05-06 05:04 -27.60488 153.00240 5894 ft 276 kts 28°
2026-05-06 05:04 -27.58785 153.01244 5294 ft 279 kts 28°
2026-05-06 05:04 -27.57056 153.02258 4656 ft 281 kts 28°
2026-05-06 05:04 -27.55337 153.03232 4069 ft 269 kts 28°
2026-05-06 05:05 -27.53711 153.04144 3479 ft 254 kts 28°
2026-05-06 05:05 -27.52165 153.05041 2885 ft 244 kts 31°
2026-05-06 05:05 -27.50693 153.05913 2299 ft 236 kts 30°
2026-05-06 05:05 -27.49298 153.06714 2012 ft 214 kts 30°
2026-05-06 05:06 -27.48025 153.07430 1760 ft 194 kts 30°
2026-05-06 05:06 -27.46859 153.08090 1530 ft 181 kts 30°
2026-05-06 05:06 -27.45769 153.08708 1286 ft 170 kts 31°
2026-05-06 05:06 -27.44760 153.09282 1053 ft 155 kts 31°
2026-05-06 05:07 -27.43797 153.09831 844 ft 151 kts 30°
2026-05-06 05:07 -27.42850 153.10347 626 ft 152 kts 29°
2026-05-06 05:07 -27.41912 153.10866 399 ft 150 kts 30°
2026-05-06 05:07 -27.40981 153.11401 203 ft 148 kts 31°
2026-05-06 05:08 -27.40069 153.11940 44 ft 147 kts 30°
2026-05-06 05:08 -27.39225 153.12427 27 ft 115 kts 26°
2026-05-06 05:08 -27.38710 153.12721 27 ft 49 kts 27°
2026-05-06 05:08 -27.38561 153.12807 27 ft 10 kts 26°
2026-05-06 05:09 -27.38492 153.12826 27 ft 9 kts 355°
2026-05-06 05:09 -27.38455 153.12785 27 ft 7 kts 298°
2026-05-06 05:09 -27.38430 153.12730 27 ft 7 kts 297°
2026-05-06 05:09 -27.38406 153.12676 27 ft 7 kts 296°
2026-05-06 05:10 -27.38378 153.12613 27 ft 10 kts 295°
2026-05-06 05:10 -27.38399 153.12530 27 ft 13 kts 215°
2026-05-06 05:10 -27.38495 153.12476 27 ft 17 kts 207°
2026-05-06 05:10 -27.38609 153.12410 27 ft 19 kts 207°
2026-05-06 05:11 -27.38739 153.12335 27 ft 22 kts 207°
2026-05-06 05:11 -27.38885 153.12254 27 ft 24 kts 207°
2026-05-06 05:11 -27.39035 153.12170 27 ft 23 kts 207°
2026-05-06 05:11 -27.39173 153.12091 27 ft 21 kts 207°
2026-05-06 05:12 -27.39303 153.12018 27 ft 19 kts 207°
2026-05-06 05:12 -27.39421 153.11949 27 ft 18 kts 208°
2026-05-06 05:12 -27.39531 153.11885 27 ft 17 kts 207°
2026-05-06 05:12 -27.39632 153.11827 27 ft 15 kts 207°
2026-05-06 05:13 -27.39728 153.11774 27 ft 14 kts 206°
2026-05-06 05:13 -27.39816 153.11723 27 ft 13 kts 207°
2026-05-06 05:13 -27.39871 153.11676 27 ft 7 kts 258°
2026-05-06 05:13 -27.39857 153.11620 27 ft 7 kts 277°
2026-05-06 05:14 -27.39881 153.11572 27 ft 9 kts 220°
2026-05-06 05:14 -27.39956 153.11533 27 ft 14 kts 204°
2026-05-06 05:14 -27.40029 153.11491 27 ft 9 kts 207°
2026-05-06 05:14 -27.40082 153.11459 27 ft 6 kts 219°
2026-05-06 05:15 -27.40082 153.11426 27 ft 5 kts 298°
2026-05-06 05:15 -27.40065 153.11389 27 ft 4 kts 297°
2026-05-06 05:15 -27.40054 153.11365 27 ft 2 kts 297°
2026-05-06 05:15 -27.40052 153.11360 27 ft 0 kts 297°